* Astronomy

Members Login
Username 
 
Password 
    Remember Me  
Post Info TOPIC: S/2017 J 1


L

Posts: 131433
Date:
S/2017 J 1
Permalink  
 


Orbital elements:
S/2017 J 1
Epoch 2017 Sept. 4.0 TT = JDT 2458000.5                 MPC
M 161.32649              (2000.0)            P               Q
n   0.48965383     Peri.   79.73238     -0.31399774     -0.90701199
a   0.1569807      Node   326.77425     -0.93870913     +0.34086171
e   0.3968680      Incl.  149.19651     +0.14223425     +0.24727019
P   2.01           H   16.5           P/d   735.21
From 14 observations 2016 Feb. 5-2017 Apr. 23, mean residual 0".28.

MPEC 2017 - L47



__________________
Page 1 of 1  sorted by
 
Quick Reply

Please log in to post quick replies.



Create your own FREE Forum
Report Abuse
Powered by ActiveBoard